Hourly Weather Murowaniec

Today, 27 September, Monday

Time Temperature Precipitation Wind Pressure Humidity
00:00 +14°C° 0 mm 4 mps 762 mmHg 74%
01:00 +14°C° 0 mm 4 mps 762 mmHg 75%
02:00 +14°C° 0 mm 4 mps 762 mmHg 76%
03:00 +13°C° 0 mm 4 mps 762 mmHg 77%
04:00 +13°C° 0 mm 4 mps 762 mmHg 78%
05:00 +13°C° 0 mm 5 mps 762 mmHg 76%
06:00 +13°C° 0 mm 5 mps 762 mmHg 75%
07:00 +13°C° 0 mm 5 mps 762 mmHg 73%
08:00 +14°C° 0 mm 5 mps 762 mmHg 67%
09:00 +16°C° 0 mm 5 mps 762 mmHg 62%
10:00 +17°C° 0 mm 6 mps 762 mmHg 56%
11:00 +19°C° 0 mm 6 mps 762 mmHg 52%
12:00 +20°C° 0 mm 6 mps 762 mmHg 48%
13:00 +21°C° 0 mm 6 mps 761 mmHg 44%
14:00 +20°C° 0 mm 5 mps 761 mmHg 45%
15:00 +20°C° 0 mm 5 mps 761 mmHg 45%
16:00 +20°C° 0 mm 5 mps 761 mmHg 45%
17:00 +17°C° 0 mm 5 mps 761 mmHg 48%
18:00 +16°C° 0 mm 5 mps 761 mmHg 50%
19:00 +15°C° 0 mm 5 mps 761 mmHg 53%
20:00 +14°C° 0 mm 5 mps 761 mmHg 54%
21:00 +14°C° 0 mm 5 mps 762 mmHg 56%
22:00 +14°C° 0 mm 5 mps 762 mmHg 57%
23:00 +13°C° 0 mm 5 mps 762 mmHg 59%

Tomorrow, 28 September, Tuesday

Time Temperature Precipitation Wind Pressure Humidity
00:00 +13°C° 0 mm 5 mps 762 mmHg 61%
01:00 +12°C° 0 mm 5 mps 762 mmHg 63%
02:00 +12°C° 0 mm 5 mps 762 mmHg 64%
03:00 +12°C° 0 mm 5 mps 762 mmHg 66%
04:00 +10°C° 0 mm 5 mps 762 mmHg 67%
05:00 +12°C° 0 mm 5 mps 762 mmHg 67%
06:00 +12°C° 0 mm 5 mps 762 mmHg 68%
07:00 +12°C° 0 mm 4 mps 762 mmHg 68%
08:00 +13°C° 0 mm 5 mps 762 mmHg 65%
09:00 +14°C° 0 mm 5 mps 763 mmHg 63%
10:00 +14°C° 0 mm 5 mps 763 mmHg 60%
11:00 +15°C° 0 mm 4 mps 763 mmHg 59%
12:00 +17°C° 0 mm 4 mps 763 mmHg 58%
13:00 +17°C° 0 mm 3 mps 763 mmHg 58%
14:00 +17°C° 0 mm 3 mps 763 mmHg 61%
15:00 +16°C° 0 mm 3 mps 763 mmHg 64%
16:00 +16°C° 0 mm 3 mps 763 mmHg 68%
17:00 +16°C° 0 mm 3 mps 763 mmHg 70%
18:00 +14°C° 0 mm 3 mps 764 mmHg 71%
19:00 +14°C° 0 mm 3 mps 764 mmHg 73%
20:00 +13°C° 0.1 mm 3 mps 764 mmHg 74%
21:00 +13°C° 0.1 mm 3 mps 764 mmHg 75%
22:00 +13°C° 0.1 mm 3 mps 764 mmHg 76%
23:00 +13°C° 0.1 mm 3 mps 764 mmHg 75%

Day after tomorrow, 29 September, Wednesday

Time Temperature Precipitation Wind Pressure Humidity
00:00 +13°C° 0.1 mm 3 mps 764 mmHg 74%
01:00 +13°C° 0.1 mm 3 mps 764 mmHg 73%
02:00 +13°C° 0 mm 4 mps 764 mmHg 72%
03:00 +13°C° 0 mm 4 mps 763 mmHg 72%
04:00 +12°C° 0 mm 4 mps 763 mmHg 71%
05:00 +12°C° 0 mm 4 mps 763 mmHg 71%
06:00 +12°C° 0 mm 4 mps 763 mmHg 71%
07:00 +12°C° 0 mm 4 mps 763 mmHg 71%
08:00 +13°C° 0 mm 5 mps 763 mmHg 69%
09:00 +13°C° 0 mm 5 mps 763 mmHg 67%
10:00 +14°C° 0 mm 5 mps 763 mmHg 64%
11:00 +15°C° 0 mm 5 mps 763 mmHg 60%
12:00 +16°C° 0 mm 5 mps 763 mmHg 55%
13:00 +16°C° 0 mm 5 mps 763 mmHg 51%
14:00 +16°C° 0 mm 5 mps 762 mmHg 52%
15:00 +16°C° 0 mm 5 mps 762 mmHg 52%
16:00 +16°C° 0 mm 5 mps 762 mmHg 53%
17:00 +15°C° 0 mm 5 mps 761 mmHg 54%
18:00 +15°C° 0 mm 5 mps 761 mmHg 56%
19:00 +14°C° 0 mm 5 mps 761 mmHg 57%
20:00 +14°C° 0 mm 5 mps 761 mmHg 59%
21:00 +13°C° 0 mm 5 mps 761 mmHg 61%
22:00 +13°C° 0 mm 4 mps 761 mmHg 63%
23:00 +12°C° 0 mm 4 mps 761 mmHg 65%

30 September, Thursday

Time Temperature Precipitation Wind Pressure Humidity
00:00 +12°C° 0 mm 4 mps 761 mmHg 68%
01:00 +12°C° 0 mm 4 mps 761 mmHg 70%
02:00 +10°C° 0.7 mm 5 mps 761 mmHg 76%
03:00 +10°C° 0.7 mm 5 mps 761 mmHg 82%
04:00 +10°C° 0.7 mm 5 mps 761 mmHg 89%
05:00 +10°C° 0.5 mm 5 mps 762 mmHg 87%
06:00 +10°C° 0.5 mm 5 mps 762 mmHg 86%
07:00 +10°C° 0.5 mm 5 mps 762 mmHg 85%
08:00 +10°C° 0 mm 6 mps 763 mmHg 78%
09:00 +10°C° 0 mm 6 mps 763 mmHg 70%
10:00 +11°C° 0 mm 6 mps 763 mmHg 63%
11:00 +13°C° 0 mm 6 mps 763 mmHg 56%
12:00 +14°C° 0 mm 7 mps 764 mmHg 49%
13:00 +14°C° 0 mm 7 mps 764 mmHg 42%
14:00 +14°C° 0 mm 7 mps 764 mmHg 43%
15:00 +14°C° 0 mm 7 mps 764 mmHg 44%
16:00 +14°C° 0 mm 6 mps 764 mmHg 45%
17:00 +13°C° 0 mm 6 mps 764 mmHg 50%
18:00 +10°C° 0 mm 5 mps 764 mmHg 54%
19:00 +10°C° 0 mm 4 mps 764 mmHg 58%
20:00 +9°C° 0 mm 5 mps 765 mmHg 59%
21:00 +8°C° 0 mm 5 mps 765 mmHg 60%
22:00 +8°C° 0 mm 5 mps 765 mmHg 61%
23:00 +8°C° 0 mm 6 mps 765 mmHg 60%

1 October, Friday

Time Temperature Precipitation Wind Pressure Humidity
00:00 +8°C° 0 mm 6 mps 764 mmHg 59%
01:00 +8°C° 0 mm 6 mps 764 mmHg 59%
02:00 +8°C° 0 mm 6 mps 764 mmHg 58%
03:00 +8°C° 0 mm 6 mps 764 mmHg 58%
04:00 +8°C° 0 mm 7 mps 764 mmHg 57%
05:00 +9°C° 0 mm 7 mps 763 mmHg 56%
06:00 +9°C° 0 mm 7 mps 763 mmHg 54%
07:00 +9°C° 0 mm 7 mps 763 mmHg 53%
08:00 +10°C° 0 mm 7 mps 763 mmHg 52%
09:00 +11°C° 0 mm 7 mps 763 mmHg 51%
10:00 +12°C° 0 mm 7 mps 763 mmHg 50%
11:00 +14°C° 0 mm 7 mps 763 mmHg 48%
12:00 +14°C° 0 mm 6 mps 763 mmHg 46%
13:00 +15°C° 0 mm 6 mps 762 mmHg 44%
14:00 +15°C° 0 mm 6 mps 762 mmHg 44%
15:00 +14°C° 0 mm 5 mps 762 mmHg 44%
16:00 +14°C° 0 mm 5 mps 762 mmHg 45%
17:00 +14°C° 0 mm 4 mps 762 mmHg 46%
18:00 +13°C° 0 mm 4 mps 762 mmHg 47%
19:00 +13°C° 0 mm 4 mps 762 mmHg 49%
20:00 +13°C° 0 mm 4 mps 762 mmHg 49%
21:00 +13°C° 0 mm 4 mps 762 mmHg 49%
22:00 +12°C° 0 mm 4 mps 761 mmHg 50%
23:00 +12°C° 0 mm 4 mps 761 mmHg 52%

2 October, Saturday

Time Temperature Precipitation Wind Pressure Humidity
00:00 +11°C° 0 mm 4 mps 761 mmHg 55%
01:00 +11°C° 0 mm 4 mps 760 mmHg 57%
02:00 +10°C° 0 mm 5 mps 760 mmHg 60%
03:00 +10°C° 0 mm 5 mps 759 mmHg 63%
04:00 +10°C° 0 mm 5 mps 759 mmHg 65%
05:00 +10°C° 0 mm 6 mps 759 mmHg 67%
06:00 +10°C° 0 mm 6 mps 758 mmHg 69%
07:00 +10°C° 0 mm 6 mps 758 mmHg 71%
08:00 +12°C° 0 mm 7 mps 757 mmHg 66%
09:00 +15°C° 0 mm 7 mps 757 mmHg 61%
10:00 +17°C° 0 mm 7 mps 757 mmHg 56%
11:00 +18°C° 0 mm 7 mps 757 mmHg 53%
12:00 +20°C° 0 mm 7 mps 756 mmHg 50%
13:00 +21°C° 0 mm 7 mps 756 mmHg 47%
14:00 +21°C° 0 mm 6 mps 756 mmHg 49%
15:00 +20°C° 0 mm 5 mps 756 mmHg 51%
16:00 +20°C° 0 mm 4 mps 756 mmHg 53%
17:00 +18°C° 0 mm 3 mps 756 mmHg 61%
18:00 +16°C° 0 mm 3 mps 757 mmHg 68%
19:00 +14°C° 0 mm 2 mps 757 mmHg 76%
20:00 +14°C° 0 mm 2 mps 757 mmHg 79%
21:00 +14°C° 0 mm 1 mps 757 mmHg 82%
22:00 +13°C° 0 mm 1 mps 757 mmHg 84%
23:00 +13°C° 0 mm 1 mps 757 mmHg 85%
Show more

We Need Your Consent

Meteoprog and our Service Providers may store and access personal data such as cookies, device identifiers or other similar technologies on your device and process such data to personalise content and ads, as well as provide social media features and to analyse the traffic.

  • Store and/or access information on your device

    Cookies, device identifiers or other information can be stored or accessed on your device for the purposes indicated above.

  • Personalised ads and content, ad and content measurement, audience insights, and products development

    Ads and content can be personalised based on a profile. More data can be added to better personalise ads and content. Ad and content performance can be measured. Insights about the audience who saw the ads and content can be derived. Such data can be used to develop or improve user’s experience, systems and software.

By clicking ‘I Agree’ you will allow the use of indicated cookies, device identifiers, web beacons or other similar technologies. Your settings can be changed in the browser on your device.

For certain purposes, legitimate interests may be relied on, rather than consent. You can read more about this in our Privacy and Cookie Policy.